Waarnemingen

Advertentie
Mijn weer
Rotterdam Zestienhoven, Nederland (6344): temperatuur & dauwpunt: 20.04.2018 22:00:00 - 26.04.2018 22:00:00 (CEST)Rotterdam Zestienhoven, Nederland (6344): temperatuur 5cm: 20.04.2018 22:00:00 - 26.04.2018 22:00:00 (CEST)Rotterdam Zestienhoven, Nederland (6344): windsnelheid & windstoten: 20.04.2018 22:00:00 - 26.04.2018 22:00:00 (CEST)Rotterdam Zestienhoven, Nederland (6344): windrichting: 20.04.2018 22:00:00 - 26.04.2018 22:00:00 (CEST)Rotterdam Zestienhoven, Nederland (6344): luchtdruk: 20.04.2018 22:00:00 - 26.04.2018 22:00:00 (CEST)Rotterdam Zestienhoven, Nederland (6344): zicht: 20.04.2018 22:00:00 - 26.04.2018 22:00:00 (CEST)Rotterdam Zestienhoven, Nederland (6344): neerslag: 20.04.2018 22:00:00 - 26.04.2018 22:00:00 (CEST)
Datum & Tijd tt [°C] td [°C] tt 5cm [°C] ff [km/u] ff [kn] fx [km/u] fx [kn] dd ppp [hPa] vv [km] rr [mm]
26.04.2018 22:00:00 9,3 6,5 8,2 16 9 32 18 WZW 1016,4 10 0,0
26.04.2018 21:00:00 10,0 5,6 8,8 16 9 36 19 WZW 1016,1 10 0,0
26.04.2018 20:00:00 10,8 4,8 10,8 24 13 40 21 WZW 1016,2 10 0,0
26.04.2018 19:00:00 11,5 5,2 11,2 28 15 40 21 WZW 1016,3 10 0,0
26.04.2018 18:00:00 12,5 4,2 14,3 28 15 47 25 WZW 1016,1 10 0,0
26.04.2018 17:00:00 12,9 5,0 14,9 29 16 54 29 W 1016,2 10 0,0
26.04.2018 16:00:00 12,2 3,7 14,8 29 16 54 29 W 1016,6 10 0,0
26.04.2018 15:00:00 11,8 4,5 14,6 31 17 47 25 WZW 1016,7 10 0,0
26.04.2018 14:00:00 11,0 5,1 12,5 28 15 47 25 W 1016,5 10 0,0
26.04.2018 13:00:00 12,1 6,6 14,8 29 16 43 23 WZW 1016,1 10 0,0
26.04.2018 12:00:00 10,9 6,1 11,5 24 13 40 21 W 1015,9 10 0,0
26.04.2018 11:00:00 11,1 7,0 10,8 26 14 40 21 W 1015,6 10 0,0
26.04.2018 10:00:00 10,3 6,3 10,5 26 14 43 23 W 1014,9 10 0,0
26.04.2018 09:00:00 9,5 5,7 9,1 24 13 43 23 W 1014,6 10 0,0
26.04.2018 08:00:00 9,2 6,1 8,5 26 14 40 21 W 1013,9 10 0,0
26.04.2018 07:00:00 8,9 5,6 8,0 26 14 40 21 W 1013,3 10 0,0
26.04.2018 06:00:00 8,9 6,3 7,9 22 12 36 19 W 1012,9 10 0,0
26.04.2018 05:00:00 8,0 5,9 7,4 21 11 43 23 WZW 1012,5 10 0,6
26.04.2018 04:00:00 9,3 6,4 8,2 22 12 47 25 WZW 1012,2 10 0,3
26.04.2018 03:00:00 9,1 5,4 7,8 16 9 40 21 W 1012,0 10 0,0
26.04.2018 02:00:00 9,6 8,0 9,1 21 11 54 29 WZW 1011,9 10 1,7
26.04.2018 01:00:00 9,8 7,8 9,3 26 14 50 27 WZW 1012,0 10 0,0
26.04.2018 00:00:00 10,0 8,3 9,1 21 11 36 19 WZW 1011,8 10 0,1
25.04.2018 23:00:00 10,4 7,7 10,1 28 15 - - WZW 1012,1 10 0,0
25.04.2018 22:00:00 10,5 7,4 10,2 26 14 47 25 WZW 1012,0 10 0,0
25.04.2018 21:00:00 10,6 7,0 9,8 28 15 47 25 WZW 1011,6 10 0,0
25.04.2018 20:00:00 11,2 7,0 11,0 29 16 43 23 WZW 1011,3 10 0,0
25.04.2018 19:00:00 11,7 6,4 11,8 18 10 43 23 WZW 1011,5 10 0,0
25.04.2018 18:00:00 13,5 5,8 15,6 28 15 43 23 WZW 1011,6 10 0,0
25.04.2018 17:00:00 13,4 5,2 15,0 31 17 - - WZW 1012,0 10 0,0
25.04.2018 16:00:00 13,0 6,1 14,6 24 13 43 23 W 1012,4 10 0,0
25.04.2018 15:00:00 11,9 6,8 12,7 28 15 40 21 W 1012,5 10 0,0
25.04.2018 14:00:00 12,6 8,3 12,7 24 13 - - W 1012,2 10 0,0
25.04.2018 13:00:00 11,1 7,2 12,3 22 12 40 21 WZW 1012,1 10 0,0
25.04.2018 12:00:00 11,0 7,4 11,7 21 11 32 18 W 1012,2 10 0,0
25.04.2018 11:00:00 10,5 7,8 10,9 16 9 25 14 W 1011,4 10 0,0
25.04.2018 10:00:00 9,9 7,5 10,1 18 10 32 18 W 1010,9 10 0,0
25.04.2018 09:00:00 9,9 7,7 9,7 18 10 36 19 W 1010,2 10 0,0
25.04.2018 08:00:00 10,1 8,1 9,7 22 12 36 19 W 1009,3 10 0,0
25.04.2018 07:00:00 10,2 8,3 9,8 26 14 54 29 WNW 1008,5 10 0,1
25.04.2018 06:00:00 11,6 9,9 11,2 34 18 58 31 WZW 1007,1 10 0,0
25.04.2018 05:00:00 11,5 10,3 11,1 35 19 54 29 WZW 1006,7 10 0,5
25.04.2018 04:00:00 11,5 10,0 11,4 39 21 65 35 WZW 1006,7 10 0,0
25.04.2018 03:00:00 13,1 10,6 12,8 39 21 68 37 WZW 1006,9 10 0,0
25.04.2018 02:00:00 13,3 10,3 13,0 34 18 58 31 ZW 1007,5 10 0,0
25.04.2018 01:00:00 13,5 10,2 13,0 34 18 54 29 ZW 1008,0 10 0,0
25.04.2018 00:00:00 13,7 10,3 13,3 34 18 47 25 ZW 1009,2 10 0,0
24.04.2018 23:00:00 13,6 10,1 13,4 31 17 54 29 ZW 1010,2 10 0,0
24.04.2018 22:00:00 13,8 9,6 13,3 24 13 47 25 ZW 1010,7 10 0,0
24.04.2018 21:00:00 13,8 9,7 13,3 18 10 32 18 ZW 1011,4 10 0,0
24.04.2018 20:00:00 13,9 10,5 13,7 13 7 25 14 ZW 1012,1 10 0,0
24.04.2018 19:00:00 13,7 10,7 14,0 9 5 22 12 W 1012,8 10 0,0
24.04.2018 18:00:00 13,3 10,3 14,1 13 7 25 14 W 1013,9 10 0,0
24.04.2018 17:00:00 13,9 9,8 14,8 18 10 36 19 WZW 1014,3 10 0,0
24.04.2018 16:00:00 14,0 9,8 15,3 21 11 36 19 WZW 1015,0 10 0,0
24.04.2018 15:00:00 13,8 9,4 15,1 24 13 36 19 WZW 1015,5 10 0,0
24.04.2018 14:00:00 13,4 9,2 14,1 22 12 36 19 W 1015,9 10 0,0
24.04.2018 13:00:00 13,7 10,1 13,5 22 12 40 21 W 1016,3 10 0,0
24.04.2018 12:00:00 13,5 10,3 14,1 26 14 40 21 WZW 1015,9 10 0,0
24.04.2018 11:00:00 12,0 9,4 12,1 24 13 40 21 WZW 1015,9 10 0,0
24.04.2018 10:00:00 11,6 9,7 11,7 22 12 36 19 WZW 1015,9 10 0,1
24.04.2018 09:00:00 11,3 9,2 11,4 24 13 32 18 WZW 1015,2 10 0,0
24.04.2018 08:00:00 11,0 8,7 10,9 22 12 36 19 WZW 1015,0 10 0,0
24.04.2018 07:00:00 10,7 8,3 10,6 24 13 43 23 WZW 1014,9 10 0,0
24.04.2018 06:00:00 11,0 7,9 10,7 26 14 40 21 WZW 1014,6 10 0,0
24.04.2018 05:00:00 10,6 7,7 10,4 26 14 43 23 ZW 1014,8 10 0,0
24.04.2018 04:00:00 10,7 7,3 10,3 28 15 43 23 ZW 1014,6 10 0,0
24.04.2018 03:00:00 10,4 7,2 10,0 24 13 40 21 ZW 1014,9 10 0,0
24.04.2018 02:00:00 10,0 6,9 9,2 26 14 40 21 ZW 1015,1 10 0,0
24.04.2018 01:00:00 10,2 6,7 9,4 28 15 40 21 ZW 1015,2 10 0,0
24.04.2018 00:00:00 10,4 6,6 9,6 26 14 43 23 ZW 1016,2 10 0,0
23.04.2018 23:00:00 10,7 6,7 9,5 22 12 43 23 WZW 1016,1 10 0,0
23.04.2018 22:00:00 10,5 6,6 9,6 22 12 36 19 WZW 1016,4 10 0,0
23.04.2018 21:00:00 11,2 6,1 10,3 26 14 43 23 WZW 1016,2 10 0,0
23.04.2018 20:00:00 12,0 6,9 11,5 25 14 40 21 WZW 1016,5 43 0,0
23.04.2018 19:00:00 12,8 6,9 13,4 18 10 36 19 W 1016,4 10 0,0
23.04.2018 18:00:00 13,6 6,8 15,1 22 12 32 18 WZW 1016,6 42 0,0
23.04.2018 17:00:00 14,0 5,9 16,4 22 12 36 19 W 1016,8 32 0,0
23.04.2018 16:00:00 14,2 7,8 18,2 18 10 29 16 W 1017,1 26 0,0
23.04.2018 15:00:00 12,9 7,6 14,3 18 10 29 16 W 1017,0 30 0,0
23.04.2018 14:00:00 13,7 8,4 16,7 21 11 32 18 W 1016,6 10 0,0
23.04.2018 13:00:00 13,2 8,5 15,9 22 12 29 16 W 1016,5 31 0,0
23.04.2018 12:00:00 13,7 9,2 16,2 18 10 29 16 W 1016,3 28 0,0
23.04.2018 11:00:00 13,2 8,9 15,3 14 8 29 16 W 1015,8 29 0,0
23.04.2018 10:00:00 12,1 8,5 12,9 15 8 25 14 W 1015,3 10 0,0
23.04.2018 09:00:00 12,0 8,9 12,4 14 8 22 12 WZW 1014,5 29 0,0
23.04.2018 08:00:00 11,3 8,7 10,5 11 6 22 12 W 1013,8 28 0,0
23.04.2018 07:00:00 10,1 8,1 9,1 11 6 18 10 W 1013,4 27 0,0
23.04.2018 06:00:00 10,5 8,2 9,4 13 7 22 12 W 1012,9 10 0,0
23.04.2018 05:00:00 11,0 8,4 10,1 14 8 29 16 W 1012,5 19 0,0
23.04.2018 04:00:00 12,3 8,7 11,5 18 10 29 16 W 1012,0 21 0,0
23.04.2018 03:00:00 11,7 8,9 10,9 15 8 25 14 WZW 1011,6 10 0,0
23.04.2018 02:00:00 12,9 8,2 12,1 16 9 32 18 W 1011,4 10 0,0
23.04.2018 01:00:00 14,3 7,5 13,2 22 12 32 18 WZW 1011,0 10 0,0
23.04.2018 00:00:00 15,5 9,0 14,6 24 13 36 19 ZW 1010,6 10 0,0
22.04.2018 23:00:00 16,3 9,0 15,0 21 11 40 21 ZW 1010,0 10 0,0
22.04.2018 22:00:00 16,8 9,2 15,5 26 14 40 21 ZW 1010,0 10 0,0
22.04.2018 21:00:00 16,9 8,6 15,8 28 15 50 27 WZW 1009,6 10 0,0
22.04.2018 20:00:00 17,8 8,6 16,9 18 10 40 21 WZW 1009,1 25 0,0
22.04.2018 19:00:00 20,1 9,2 20,8 14 8 36 19 W 1009,1 30 0,0
22.04.2018 18:00:00 21,4 14,9 23,4 18 10 29 16 W 1009,1 10 0,0
22.04.2018 17:00:00 22,1 13,3 23,7 14 8 36 19 W 1009,0 17 0,0
22.04.2018 16:00:00 23,8 14,2 26,0 21 11 36 19 W 1009,2 10 0,0
22.04.2018 15:00:00 24,9 14,0 26,7 16 9 32 18 ZZW 1009,2 10 0,0
22.04.2018 14:00:00 24,8 13,8 27,8 16 9 25 14 Z 1009,4 10 0,0
22.04.2018 13:00:00 23,4 13,9 26,2 9 5 18 10 ZZO 1010,0 9 0,0
22.04.2018 12:00:00 18,2 13,4 17,3 15 8 25 14 ZZO 1011,3 10 0,0
22.04.2018 11:00:00 19,3 12,5 21,6 5 3 14 8 ZO 1011,6 10 0,0
22.04.2018 10:00:00 18,4 11,3 19,3 11 6 18 10 ZZO 1011,8 10 0,0
22.04.2018 09:00:00 15,9 10,3 15,1 8 4 14 8 ZO 1012,4 10 0,0
22.04.2018 08:00:00 13,7 9,8 11,9 5 3 11 6 O 1013,4 10 0,0
22.04.2018 07:00:00 12,0 8,2 8,9 7 4 11 6 OZO 1013,6 22 0,0
22.04.2018 06:00:00 11,8 8,3 9,4 5 3 11 6 OZO 1013,8 10 0,0
22.04.2018 05:00:00 12,7 7,9 9,7 7 4 14 8 O 1014,5 28 0,0
22.04.2018 04:00:00 13,0 7,9 9,5 11 6 14 8 O 1015,5 34 0,0
22.04.2018 03:00:00 13,3 7,7 9,8 8 4 14 8 O 1016,2 10 0,0
22.04.2018 02:00:00 14,4 8,1 9,6 9 5 22 12 O 1016,6 10 0,0
22.04.2018 01:00:00 11,1 9,3 9,3 5 3 11 6 NO 1017,2 10 0,0
22.04.2018 00:00:00 11,5 9,3 9,7 8 4 14 8 O 1017,9 10 0,0
21.04.2018 23:00:00 12,5 9,6 10,2 9 5 14 8 ONO 1018,3 10 0,0
21.04.2018 22:00:00 13,3 9,2 11,2 11 6 18 10 ONO 1018,7 10 0,0
21.04.2018 21:00:00 15,9 9,6 12,9 11 6 18 10 NO 1018,7 10 0,0
21.04.2018 20:00:00 18,8 11,4 16,4 11 6 18 10 NO 1018,9 33 0,0
21.04.2018 19:00:00 20,1 12,3 18,9 14 8 18 10 NO 1019,1 39 0,0
21.04.2018 18:00:00 21,1 10,3 20,9 11 6 18 10 NO 1019,6 34 0,0
21.04.2018 17:00:00 21,2 10,6 21,8 14 8 22 12 NO 1020,3 29 0,0
21.04.2018 16:00:00 21,0 11,3 22,6 11 6 22 12 NO 1020,9 25 0,0
21.04.2018 15:00:00 20,3 9,5 22,6 11 6 22 12 NO 1021,7 10 0,0
21.04.2018 14:00:00 19,8 9,9 22,9 13 7 18 10 NO 1022,2 10 0,0
21.04.2018 13:00:00 18,7 10,3 21,6 13 7 25 14 ONO 1022,6 10 0,0
21.04.2018 12:00:00 17,8 10,6 20,6 13 7 22 12 NO 1023,1 10 0,0
21.04.2018 11:00:00 16,4 10,6 18,3 11 6 22 12 NO 1023,5 10 0,0
21.04.2018 10:00:00 14,8 11,4 16,2 15 8 18 10 O 1023,3 10 0,0
21.04.2018 09:00:00 13,0 11,0 13,7 8 4 14 8 ONO 1023,2 8 0,0
21.04.2018 08:00:00 10,1 9,5 8,6 4 2 7 4 N 1023,2 4,3 0,0
21.04.2018 07:00:00 8,0 8,0 6,2 4 2 7 4 NNO 1022,9 3,1 0,0
21.04.2018 06:00:00 8,2 8,1 6,4 4 2 7 4 NNW 1022,5 1,7 0,0
21.04.2018 05:00:00 8,6 8,3 7,2 4 2 7 4 NNW 1022,8 3,2 0,0
21.04.2018 04:00:00 9,1 8,2 7,9 4 2 7 4 N 1022,7 4,8 0,0
21.04.2018 03:00:00 9,1 8,2 7,9 7 4 14 8 NNW 1022,8 2,8 0,0
21.04.2018 02:00:00 9,9 8,4 8,3 5 3 11 6 N 1022,9 2,9 0,0
21.04.2018 01:00:00 10,2 8,2 8,7 2 1 11 6 - 1022,8 3,1 0,0
21.04.2018 00:00:00 10,1 8,4 9,0 5 3 7 4 NNW 1022,9 3,0 0,0
20.04.2018 23:00:00 10,1 8,5 9,6 5 3 11 6 NNW 1023,0 3,3 0,0
20.04.2018 22:00:00 10,6 8,9 10,1 5 3 14 8 NW 1022,9 4,4 0,0

tt = temperatuur
td = dauwpunt
tt 5cm = temperatuur 5cm
ff = windsnelheid
fx = windstoten
dd = windrichting
ppp = luchtdruk
vv = zicht
rr = neerslag

Weerstations in de omgeving